Weather History for Alliance, NE

Change the Weather History Date:

Sunday, February 3, 2013

  Actual Average Record
Temperature  
Mean Temperature 33 °F 25 °F  
Max Temperature 54 °F 39 °F 69 °F (1962)
Min Temperature 12 °F 11 °F -27 °F (1996)
Degree Days  
Heating Degree Days 32 40  
Month to date heating degree days 95 120  
Since 1 July heating degree days 4164 4465  
Cooling Degree Days 0 0  
Month to date cooling degree days 0 0  
Year to date cooling degree days 0 0  
Moisture  
Dew Point 17 °F    
Average Humidity 57    
Maximum Humidity 92    
Minimum Humidity 22    
Precipitation  
Precipitation 0.00 in 0.02 in 0.23 in (1960)
Month to date precipitation 0.00 0.04  
Year to date precipitation T 0.22  
Sea Level Pressure  
Sea Level Pressure 30.03 in    
Wind  
Wind Speed 8 mph (West)    
Max Wind Speed 18 mph    
Max Gust Speed 23 mph    
Visibility 10 miles    
Events      
T = Trace of Precipitation, MM = Missing Value Source: NWS Daily Summary

Daily Weather History Graph

Daily Weather History Graph

Search for Another Location

Airport:

Trip Planner

Search our weather history database for the weather conditions in past years. The results will help you decide how hot, cold, wet, or windy it might be!

Date:

Astronomy

Feb. 03, 2013 Rise Set
Actual Time 7:01 AM MST 5:09 PM MST
Civil Twilight 6:32 AM MST 5:38 PM MST
Nautical Twilight 5:58 AM MST 6:11 PM MST
Astronomical Twilight 5:26 AM MST 6:44 PM MST
Moon 12:32 AM MST (2/3) 10:47 AM MST (2/3)
Length of Visible Light 11h 06m
Length of Day
10h 07m
Waning Gibbous, 48% of the Moon is Illuminated
Feb 3
Waning Gibbous
Feb 10
New
Feb 17
First Quarter
Feb 25
Full
Mar 4
Last Quarter

Hourly Weather History & Observations

Time (MST) Temp. Windchill Dew Point Humidity Pressure Visibility Wind Dir Wind Speed Gust Speed Precip Events Conditions
12:53 AM 21.9 °F 11.7 °F 18.0 °F 85% 30.25 in 10.0 mi WNW 9.2 mph - N/A   Clear
1:53 AM 19.9 °F 10.1 °F 16.0 °F 85% 30.24 in 10.0 mi West 8.1 mph - N/A   Clear
2:53 AM 16.0 °F 7.4 °F 12.9 °F 88% 30.23 in 10.0 mi West 5.8 mph - N/A   Clear
3:53 AM 16.0 °F - 12.9 °F 88% 30.21 in 10.0 mi Calm Calm - N/A   Clear
4:53 AM 14.0 °F 8.2 °F 10.0 °F 84% 30.20 in 10.0 mi South 3.5 mph - N/A   Clear
5:53 AM 16.0 °F - 12.0 °F 84% 30.19 in 10.0 mi Calm Calm - N/A   Clear
6:53 AM 12.9 °F 2.6 °F 10.0 °F 88% 30.17 in 10.0 mi West 6.9 mph - N/A   Clear
7:53 AM 21.0 °F 14.6 °F 16.0 °F 81% 30.14 in 10.0 mi West 4.6 mph - N/A   Clear
8:53 AM 30.9 °F - 23.0 °F 72% 30.11 in 10.0 mi North - - N/A   Clear
9:53 AM 42.1 °F 34.5 °F 19.0 °F 40% 30.05 in 10.0 mi WSW 15.0 mph - N/A   Clear
10:53 AM 46.0 °F 40.6 °F 18.0 °F 33% 30.02 in 10.0 mi West 11.5 mph - N/A   Clear
11:53 AM 48.9 °F - 18.0 °F 29% 29.97 in 10.0 mi WSW 13.8 mph - N/A   Clear
12:53 PM 52.0 °F - 16.0 °F 24% 29.91 in 10.0 mi West 13.8 mph - N/A   Clear
1:53 PM 53.1 °F - 15.1 °F 22% 29.87 in 10.0 mi West 11.5 mph - N/A   Clear
2:53 PM 53.1 °F - 16.0 °F 23% 29.88 in 10.0 mi West 9.2 mph - N/A   Clear
3:53 PM 53.1 °F - 15.1 °F 22% 29.87 in 10.0 mi West 11.5 mph - N/A   Clear
4:53 PM 44.1 °F 40.1 °F 17.1 °F 34% 29.90 in 10.0 mi WNW 6.9 mph - N/A   Clear
5:53 PM 36.0 °F 31.1 °F 18.0 °F 48% 29.93 in 10.0 mi WNW 5.8 mph - N/A   Clear
6:53 PM 39.0 °F 31.8 °F 18.0 °F 43% 29.95 in 10.0 mi NNW 11.5 mph - N/A   Clear
7:53 PM 42.1 °F 34.9 °F 19.0 °F 40% 29.92 in 10.0 mi NW 13.8 mph - N/A   Clear
8:53 PM 32.0 °F 25.6 °F 21.9 °F 66% 29.95 in 10.0 mi North 6.9 mph - N/A   Clear
9:53 PM 25.0 °F 17.1 °F 18.0 °F 75% 29.94 in 10.0 mi WNW 6.9 mph - N/A   Clear
10:53 PM 27.0 °F 23.0 °F 19.0 °F 72% 29.93 in 10.0 mi WNW 3.5 mph - N/A   Clear
11:53 PM 27.0 °F 21.6 °F 18.0 °F 69% 29.94 in 10.0 mi WNW 4.6 mph - N/A   Clear